This is the latest recevied weather packets stored in our database for station/object AB0TJ. If no packets are shown the sender has not sent any weather packets the latest 10 day(s).
| Time | Temp. | Humidity | Pressure | Rain* | Wind** | Luminosity | Snow |
|---|---|---|---|---|---|---|---|
| 1777720629 | 6.67° C | 46% | 1020.9 hPa | 0 mm | - | 0 W/m² | - |
| 1777720149 | 6.67° C | 46% | 1021.3 hPa | 0 mm | - | 0 W/m² | - |
| 1777719609 | 7.22° C | 45% | 1020.9 hPa | 0 mm | - | 0 W/m² | - |
| 1777719039 | 7.22° C | 45% | 1021.1 hPa | 0 mm | - | 0 W/m² | - |
| 1777718512 | 7.22° C | 45% | 1020.9 hPa | 0 mm | - | 0 W/m² | - |
| 1777717944 | 7.22° C | 45% | 1020.7 hPa | 0 mm | - | 0 W/m² | - |
| 1777717389 | 7.78° C | 44% | 1020.8 hPa | 0 mm | - | 0 W/m² | - |
| 1777716799 | 7.22° C | 45% | 1020.7 hPa | 0 mm | - | 0 W/m² | - |
| 1777716309 | 7.22° C | 45% | 1020.6 hPa | 0 mm | - | 0 W/m² | - |
| 1777715749 | 7.22° C | 46% | 1020.5 hPa | 0 mm | - | 0 W/m² | - |
| 1777714632 | 7.78° C | 44% | 1020.6 hPa | 0 mm | - | 0 W/m² | - |
| 1777714141 | 8.33° C | 44% | 1020.3 hPa | 0 mm | - | 0 W/m² | - |
| 1777713552 | 8.89° C | 42% | 1020.4 hPa | 0 mm | - | 0 W/m² | - |
| 1777712989 | 9.44° C | 41% | 1020 hPa | 0 mm | - | 0 W/m² | - |
| 1777712432 | 9.44° C | 40% | 1020 hPa | 0 mm | - | 0 W/m² | - |
| 1777711919 | 10° C | 39% | 1019.9 hPa | 0 mm | - | 0 W/m² | - |
| 1777711354 | 10° C | 39% | 1019.9 hPa | 0 mm | - | 0 W/m² | - |
| 1777710844 | 10° C | 38% | 1020.1 hPa | 0 mm | - | 0 W/m² | - |
| 1777710319 | 9.44° C | 38% | 1020 hPa | 0 mm | - | 0 W/m² | - |
| 1777709732 | 9.44° C | 37% | 1020 hPa | 0 mm | - | 0 W/m² | - |
| 1777709252 | 9.44° C | 36% | 1019.8 hPa | 0 mm | - | 0 W/m² | - |
| 1777708673 | 8.89° C | 36% | 1019.8 hPa | 0 mm | - | 0 W/m² | - |
| 1777708149 | 8.89° C | 37% | 1019.9 hPa | 0 mm | - | 0 W/m² | - |
| 1777707553 | 8.89° C | 38% | 1019.8 hPa | 0 mm | - | 0 W/m² | - |
| 1777706999 | 8.89° C | 37% | 1020 hPa | 0 mm | - | 0 W/m² | - |
* Rain latest hour (hover to see other rain measurements)
** Current wind speed in m/s (hover to see current wind gust speed)